| time (UTC) | temp F | wind direction | speed knots | gust knots | rain 1hr in | rain 24hr in | rain mn in | humidity % | barometer mb |
| 20260508012805 | 70 | 109 | 1.7 | 2.6 | 0.00 | 0.00 | 0.00 | 81 | 1005.9 |
| 20260508011603 | 69 | 40 | 4.3 | 5.2 | 0.00 | 0.00 | 0.00 | 82 | 1005.8 |
| 20260508010405 | 69 | 22 | 0.9 | 2.6 | 0.00 | 0.00 | 0.00 | 82 | 1005.9 |
| 20260508005208 | 69 | 286 | 1.7 | 1.7 | 0.00 | 0.00 | 0.00 | 83 | 1006.4 |
| 20260508004004 | 68 | 286 | 0.9 | 2.6 | 0.00 | 0.00 | 0.00 | 82 | 1006.5 |
| 20260508002804 | 67 | 285 | 1.7 | 2.6 | 0.00 | 0.00 | 0.00 | 84 | 1006.7 |
| 20260508001605 | 67 | 285 | 0.9 | 2.6 | 0.00 | 0.00 | 0.00 | 84 | 1007.2 |
| 20260508000407 | 67 | 285 | 0.0 | 0.0 | 0.00 | 0.00 | 0.00 | 86 | 1007.4 |
| 20260507235204 | 67 | 282 | 0.9 | 2.6 | 0.00 | 0.00 | 0.00 | 85 | 1007.3 |
| 20260507234008 | 65 | 252 | 0.0 | 0.9 | 0.00 | 0.00 | 0.00 | 86 | 1007.3 |
| 20260507232806 | 64 | 245 | 1.7 | 2.6 | 0.00 | 0.00 | 0.00 | 89 | 1007.2 |
| 20260507231606 | 63 | 259 | 0.9 | 1.7 | 0.00 | 0.00 | 0.00 | 92 | 1007.4 |
| 20260507230406 | 62 | 217 | 0.9 | 1.7 | 0.00 | 0.00 | 0.00 | 96 | 1007.4 |
| 20260507225206 | 61 | 265 | 0.0 | 0.9 | 0.00 | 0.00 | 0.00 | 96 | 1007.2 |
| 20260507224006 | 62 | 264 | 0.0 | 0.0 | 0.00 | 0.00 | 0.00 | 96 | 1007.1 |
| 20260507222809 | 61 | 220 | 1.7 | 1.7 | 0.00 | 0.00 | 0.00 | 96 | 1007.3 |
| 20260507221606 | 61 | 272 | 0.0 | 0.0 | 0.00 | 0.00 | 0.00 | 98 | 1007.4 |
| 20260507220405 | 61 | 273 | 1.7 | 1.7 | 0.00 | 0.00 | 0.00 | 98 | 1007.3 |
| 20260507215206 | 61 | 267 | 0.9 | 1.7 | 0.00 | 0.00 | 0.00 | 96 | 1007.6 |
| 20260507214006 | 61 | 260 | 0.0 | 0.9 | 0.00 | 0.00 | 0.00 | 95 | 1007.6 |
| 20260507212806 | 61 | 218 | 0.9 | 0.9 | 0.00 | 0.00 | 0.00 | 94 | 1007.6 |
| 20260507211605 | 61 | 222 | 0.9 | 1.7 | 0.00 | 0.00 | 0.00 | 95 | 1007.6 |
| 20260507210405 | 60 | 219 | 0.9 | 1.7 | 0.00 | 0.00 | 0.00 | 98 | 1007.2 |
| 20260507205205 | 60 | 284 | 2.6 | 4.3 | 0.00 | 0.00 | 0.00 | 99 | 1007.3 |
| 20260507204006 | 60 | 229 | 1.7 | 1.7 | 0.00 | 0.00 | 0.00 | 99 | 1007.3 |
| 20260507202807 | 60 | 257 | 0.9 | 1.7 | 0.00 | 0.00 | 0.00 | 99 | 1007.3 |
| 20260507201605 | 59 | 257 | 0.0 | 0.0 | 0.00 | 0.00 | 0.00 | 99 | 1007.3 |
| 20260507200405 | 60 | 257 | 0.9 | 1.7 | 0.00 | 0.00 | 0.00 | 99 | 1007.2 |
| 20260507195207 | 60 | 258 | 0.0 | 0.0 | 0.00 | 0.00 | 0.00 | 99 | 1007.3 |
| 20260507194006 | 59 | 258 | 0.9 | 0.9 | 0.00 | 0.00 | 0.00 | 99 | 1007.2 |
| 20260507192809 | 60 | 258 | 0.0 | 0.0 | 0.00 | 0.00 | 0.00 | 99 | 1007.4 |
| 20260507191605 | 60 | 258 | 0.9 | 1.7 | 0.00 | 0.00 | 0.00 | 99 | 1007.2 |
| 20260507190405 | 59 | 258 | 0.9 | 0.9 | 0.00 | 0.00 | 0.00 | 99 | 1007.2 |
| 20260507185207 | 60 | 258 | 0.9 | 1.7 | 0.00 | 0.00 | 0.00 | 99 | 1007.2 |
| 20260507184005 | 60 | 258 | 1.7 | 1.7 | 0.00 | 0.00 | 0.00 | 99 | 1007.2 |
| 20260507182806 | 60 | 258 | 0.0 | 0.0 | 0.00 | 0.00 | 0.00 | 99 | 1007.2 |
| 20260507181606 | 60 | 258 | 0.9 | 1.7 | 0.00 | 0.00 | 0.00 | 99 | 1007.3 |
| 20260507180405 | 60 | 192 | 0.9 | 1.7 | 0.00 | 0.00 | 0.00 | 99 | 1007.4 |
| 20260507175205 | 60 | 178 | 1.7 | 1.7 | 0.00 | 0.00 | 0.00 | 99 | 1007.4 |
| 20260507174005 | 60 | 263 | 1.7 | 1.7 | 0.00 | 0.00 | 0.00 | 99 | 1007.5 |
| 20260507172805 | 60 | 245 | 1.7 | 2.6 | 0.00 | 0.00 | 0.00 | 99 | 1007.6 |
| 20260507171606 | 60 | 242 | 0.9 | 1.7 | 0.00 | 0.00 | 0.00 | 99 | 1007.6 |
| 20260507170404 | 60 | 233 | 0.9 | 0.9 | 0.00 | 0.00 | 0.00 | 99 | 1007.6 |
| 20260507165205 | 60 | 193 | 0.0 | 1.7 | 0.00 | 0.00 | 0.00 | 99 | 1007.7 |
| 20260507164006 | 60 | 256 | 0.9 | 0.9 | 0.00 | 0.00 | 0.00 | 99 | 1007.8 |
| 20260507162807 | 61 | 256 | 0.0 | 0.9 | 0.00 | 0.00 | 0.00 | 99 | 1008.0 |
| 20260507161607 | 61 | 194 | 1.7 | 2.6 | 0.00 | 0.00 | 0.00 | 99 | 1008.0 |
| 20260507160404 | 61 | 156 | 1.7 | 1.7 | 0.00 | 0.00 | 0.00 | 99 | 1007.9 |
| 20260507155206 | 61 | 271 | 0.9 | 0.9 | 0.00 | 0.00 | 0.00 | 99 | 1008.2 |
| 20260507154007 | 62 | 209 | 0.9 | 0.9 | 0.00 | 0.00 | 0.00 | 99 | 1008.4 |
| 20260507152805 | 62 | 278 | 1.7 | 2.6 | 0.00 | 0.00 | 0.00 | 99 | 1008.5 |
| 20260507151604 | 62 | 179 | 1.7 | 1.7 | 0.00 | 0.00 | 0.00 | 99 | 1008.6 |
| 20260507150406 | 62 | 162 | 0.9 | 1.7 | 0.00 | 0.00 | 0.00 | 99 | 1008.8 |
| 20260507145205 | 62 | 258 | 0.9 | 0.9 | 0.00 | 0.00 | 0.00 | 99 | 1008.9 |
| 20260507144005 | 63 | 178 | 1.7 | 2.6 | 0.00 | 0.00 | 0.00 | 99 | 1008.9 |
| 20260507142807 | 63 | 226 | 4.3 | 4.3 | 0.00 | 0.00 | 0.00 | 99 | 1008.8 |
| 20260507141604 | 63 | 261 | 1.7 | 1.7 | 0.00 | 0.00 | 0.00 | 98 | 1008.9 |
| 20260507140404 | 64 | 250 | 0.9 | 0.9 | 0.00 | 0.00 | 0.00 | 97 | 1009.1 |
| 20260507135205 | 64 | 208 | 1.7 | 1.7 | 0.00 | 0.00 | 0.00 | 97 | 1009.2 |
| 20260507134006 | 64 | 309 | 0.9 | 1.7 | 0.00 | 0.00 | 0.00 | 97 | 1009.2 |
| 20260507132806 | 65 | 309 | 0.0 | 0.0 | 0.00 | 0.00 | 0.00 | 95 | 1009.1 |
| 20260507131605 | 65 | 309 | 0.9 | 1.7 | 0.00 | 0.00 | 0.00 | 96 | 1009.4 |
| 20260507130405 | 65 | 258 | 1.7 | 2.6 | 0.00 | 0.00 | 0.00 | 95 | 1009.2 |
| 20260507125206 | 65 | 229 | 0.9 | 1.7 | 0.00 | 0.00 | 0.00 | 94 | 1009.4 |
| 20260507124005 | 65 | 230 | 0.9 | 1.7 | 0.00 | 0.00 | 0.00 | 94 | 1009.3 |
| 20260507122805 | 66 | 290 | 0.9 | 1.7 | 0.00 | 0.00 | 0.00 | 93 | 1009.3 |
| 20260507121605 | 66 | 224 | 1.7 | 1.7 | 0.00 | 0.00 | 0.00 | 93 | 1009.2 |
| 20260507120405 | 66 | 306 | 0.0 | 0.9 | 0.00 | 0.00 | 0.00 | 93 | 1009.5 |
| 20260507115205 | 67 | 306 | 0.9 | 1.7 | 0.00 | 0.00 | 0.00 | 92 | 1009.3 |
| 20260507114006 | 67 | 175 | 0.9 | 1.7 | 0.00 | 0.00 | 0.00 | 92 | 1009.3 |
| 20260507112805 | 67 | 163 | 1.7 | 1.7 | 0.00 | 0.00 | 0.00 | 90 | 1009.3 |
| 20260507111603 | 67 | 227 | 1.7 | 2.6 | 0.00 | 0.00 | 0.00 | 90 | 1009.1 |
| 20260507110407 | 68 | 299 | 1.7 | 1.7 | 0.00 | 0.00 | 0.00 | 89 | 1009.0 |
| 20260507105204 | 68 | 294 | 0.9 | 1.7 | 0.00 | 0.00 | 0.00 | 89 | 1008.9 |
| 20260507104004 | 68 | 226 | 1.7 | 2.6 | 0.00 | 0.00 | 0.00 | 88 | 1009.1 |
| 20260507102806 | 69 | 279 | 1.7 | 1.7 | 0.00 | 0.00 | 0.00 | 88 | 1008.8 |
| 20260507101604 | 69 | 282 | 0.9 | 1.7 | 0.00 | 0.00 | 0.00 | 87 | 1008.8 |
| 20260507100404 | 69 | 225 | 1.7 | 1.7 | 0.00 | 0.00 | 0.00 | 86 | 1008.7 |
| 20260507095204 | 71 | 275 | 0.0 | 1.7 | 0.00 | 0.00 | 0.00 | 85 | 1008.5 |
| 20260507094004 | 71 | 247 | 0.9 | 1.7 | 0.00 | 0.00 | 0.00 | 84 | 1008.4 |
| 20260507092804 | 72 | 318 | 1.7 | 1.7 | 0.00 | 0.00 | 0.00 | 82 | 1008.3 |
| 20260507091608 | 73 | 323 | 0.0 | 0.0 | 0.00 | 0.00 | 0.00 | 78 | 1008.1 |
| 20260507090406 | 74 | 323 | 0.0 | 0.0 | 0.00 | 0.00 | 0.00 | 77 | 1007.8 |
| 20260507085203 | 74 | 349 | 1.7 | 2.6 | 0.00 | 0.00 | 0.00 | 77 | 1007.8 |
| 20260507084005 | 75 | 348 | 1.7 | 2.6 | 0.00 | 0.00 | 0.00 | 76 | 1007.7 |
| 20260507082803 | 75 | 37 | 0.9 | 1.7 | 0.00 | 0.00 | 0.00 | 74 | 1007.5 |
| 20260507081603 | 75 | 19 | 0.9 | 2.6 | 0.00 | 0.00 | 0.00 | 74 | 1007.7 |
| 20260507080406 | 76 | 8 | 1.7 | 5.2 | 0.00 | 0.00 | 0.00 | 72 | 1007.6 |
| 20260507075206 | 76 | 27 | 1.7 | 4.3 | 0.00 | 0.00 | 0.00 | 71 | 1007.8 |
| 20260507074004 | 77 | 40 | 2.6 | 6.1 | 0.00 | 0.00 | 0.00 | 70 | 1007.9 |
| 20260507072805 | 77 | 31 | 4.3 | 6.1 | 0.00 | 0.00 | 0.00 | 70 | 1007.9 |
| 20260507071608 | 77 | 142 | 2.6 | 2.6 | 0.00 | 0.00 | 0.00 | 69 | 1008.0 |
| 20260507070406 | 77 | 116 | 5.2 | 6.1 | 0.00 | 0.00 | 0.00 | 68 | 1008.0 |
| 20260507065205 | 79 | 94 | 2.6 | 5.2 | 0.00 | 0.00 | 0.00 | 65 | 1008.0 |
| 20260507064005 | 78 | 44 | 5.2 | 7.8 | 0.00 | 0.00 | 0.00 | 66 | 1008.1 |
| 20260507062804 | 78 | 92 | 4.3 | 10.4 | 0.00 | 0.00 | 0.00 | 66 | 1008.0 |
| 20260507061605 | 78 | 158 | 0.9 | 5.2 | 0.00 | 0.00 | 0.00 | 66 | 1008.1 |
| 20260507055203 | 78 | 120 | 7.0 | 13.0 | 0.00 | 0.00 | 0.00 | 66 | 1008.5 |
| 20260507054004 | 79 | 226 | 5.2 | 7.8 | 0.00 | 0.00 | 0.00 | 65 | 1008.5 |
| 20260507052808 | 78 | 126 | 7.8 | 13.9 | 0.00 | 0.00 | 0.00 | 66 | 1008.7 |
| 20260507051605 | 78 | 18 | 5.2 | 11.3 | 0.00 | 0.00 | 0.00 | 65 | 1008.6 |
| 20260507050405 | 80 | 101 | 5.2 | 10.4 | 0.00 | 0.00 | 0.00 | 62 | 1008.8 |
| 20260507045204 | 80 | 16 | 8.7 | 13.9 | 0.00 | 0.00 | 0.00 | 61 | 1009.0 |
| 20260507044004 | 80 | 28 | 10.4 | 15.6 | 0.00 | 0.00 | 0.00 | 61 | 1009.0 |
| 20260507042805 | 80 | 21 | 8.7 | 11.3 | 0.00 | 0.00 | 0.00 | 59 | 1009.0 |
| 20260507041605 | 80 | 41 | 6.1 | 13.9 | 0.00 | 0.00 | 0.00 | 58 | 1009.2 |
| 20260507040404 | 80 | 103 | 5.2 | 8.7 | 0.00 | 0.00 | 0.00 | 58 | 1009.4 |
| 20260507035207 | 81 | 43 | 2.6 | 10.4 | 0.00 | 0.00 | 0.00 | 57 | 1009.5 |
| 20260507034005 | 79 | 321 | 2.6 | 7.8 | 0.00 | 0.00 | 0.00 | 58 | 1009.6 |
| 20260507032804 | 80 | 350 | 2.6 | 6.1 | 0.00 | 0.00 | 0.00 | 56 | 1009.9 |
| 20260507031606 | 79 | 16 | 1.7 | 4.3 | 0.00 | 0.00 | 0.00 | 57 | 1010.1 |
| 20260507030412 | 79 | 33 | 4.3 | 10.4 | 0.00 | 0.00 | 0.00 | 57 | 1010.0 |
| 20260507025205 | 78 | 31 | 7.0 | 11.3 | 0.00 | 0.00 | 0.00 | 57 | 1010.2 |
| 20260507024004 | 79 | 23 | 6.1 | 11.3 | 0.00 | 0.00 | 0.00 | 57 | 1010.6 |
| 20260507022805 | 79 | 16 | 6.1 | 11.3 | 0.00 | 0.00 | 0.00 | 57 | 1010.5 |
| 20260507021604 | 77 | 26 | 0.9 | 4.3 | 0.00 | 0.00 | 0.00 | 62 | 1011.0 |
| 20260507020407 | 77 | 68 | 1.7 | 5.2 | 0.00 | 0.00 | 0.00 | 60 | 1011.2 |
| 20260507015205 | 76 | 38 | 5.2 | 7.8 | 0.00 | 0.00 | 0.00 | 61 | 1011.5 |
| 20260507014004 | 77 | 12 | 0.9 | 5.2 | 0.00 | 0.00 | 0.00 | 60 | 1011.7 |